CALSPHERE 1

导读 | 豆包AI

CALSPHERE 1是美国于1964年10月6日发射的一颗试验卫星,作为早期航天探索的产物,它承载着美国人验证航天技术、开展空间环境探测的使命。在人类航天事业起步阶段,这颗卫星为美国积累了宝贵的空间飞行经验,推动了后续卫星技术的发展,是冷战时期美国太空探索进程中一颗具有历史意义的早期航天器。

基本信息
目录编号:
900
目录名称:
CALSPHERE 1
国际标识:
1964-063C
轨道中心:
EARTH
卫星名称:
CALSPHERE 1
卫星全名:
--
卫星状态:
在轨 (已飞行22485 天)
发射日期:
1964-10-06 UTC
国别 :
美国 (US)
星等 :
--
轨道信息
数据来源 国际轨道数据
星历时间: 2026-04-29T16:08:20+0800
7小时前
查看轨道信息
半长轴: 7354.233km
偏心率: 0.0028472
轨道倾角: 90.222°
近地点辐角 79.600°
升交点赤经 70.620°
平近点角 74.611°
近地点: 955.157km
远地点: 997.035km
周期: 104.608分钟
每日圈数: 13.765649
详细信息
使用方式:
暂无
2D轨道图
3D轨道图
轨道高度分析图
轨道倾角分析图
轨道综合分析图
查看轨道综合分析图